User: anonymous   Login
Location: Trondheim
(63.4170°N, 10.4170°E)
Time: 15:41:56
(UTC+01:00)
Language:

Iridium 82 - Orbit

View from above orbital plane
View from above orbital plane
View from above satellite
View from above satellite

Ground track
Ground track

The orbit data is extracted from the following two-line orbital elements,

1 25467U 98051A   18019.80307736 +.00000928 +00000-0 +68287-4 0  9994
2 25467 086.4015 281.6750 0181364 339.7477 019.6615 14.89695719019087
Epoch (UTC): 19 January 2018 19:16:25
Eccentricity: 0.0181364
inclination: 86.4015°
perigee height: 472 km
apogee height: 725 km
right ascension of ascending node: 281.6750°
argument of perigee: 339.7477°
revolutions per day: 14.89695719
mean anomaly at epoch: 19.6615°
orbit number at epoch: 1908

The dashed part of the orbit path shows where the satellite is in the earth's shadow,  

DLR